TRA5962 EKCH-EHEH

Flight info

Callsign TRA5962
Flight time N/A
Altitude 38000
Route NEXEN T503 MICOS DCT NIE DCT DENOL DCT DOMEG DCT ROTEK
Aircraft B738/M-SDE2E3FGHIJ1RWXYZ/LB1

Departure

Time 2026-05-04 19:38
Airport Copenhagen Kastrup Airport (EKCH)

Arrival

Time N/A
Airport Eindhoven Airport (EHEH)
Time Latitude Longitude Altitude Speed Heading
2026-05-04 17:31 55.62515 12.65573 16 ft 0 kts 23°
2026-05-04 19:20 55.62492 12.65556 17 ft 4 kts 23°
2026-05-04 19:21 55.62471 12.65540 19 ft 4 kts 17°
2026-05-04 19:21 55.62449 12.65537 19 ft 4 kts 317°
2026-05-04 19:21 55.62441 12.65574 17 ft 4 kts 269°
2026-05-04 19:21 55.62441 12.65597 16 ft 4 kts 269°
2026-05-04 19:22 55.62440 12.65549 17 ft 4 kts 269°
2026-05-04 19:22 55.62440 12.65507 17 ft 1 kts 269°
2026-05-04 19:22 55.62440 12.65506 17 ft 0 kts 269°
2026-05-04 19:26 55.62440 12.65502 16 ft 3 kts 269°
2026-05-04 19:26 55.62439 12.65416 16 ft 9 kts 269°
2026-05-04 19:27 55.62437 12.65297 16 ft 10 kts 269°
2026-05-04 19:27 55.62412 12.65202 16 ft 9 kts 193°
2026-05-04 19:27 55.62347 12.65205 16 ft 9 kts 178°
2026-05-04 19:27 55.62288 12.65181 16 ft 9 kts 225°
2026-05-04 19:28 55.62275 12.65080 16 ft 9 kts 289°
2026-05-04 19:28 55.62306 12.64990 18 ft 8 kts 303°
2026-05-04 19:28 55.62337 12.64903 18 ft 8 kts 303°
2026-05-04 19:28 55.62351 12.64812 16 ft 8 kts 249°
2026-05-04 19:29 55.62328 12.64725 16 ft 8 kts 244°
2026-05-04 19:29 55.62305 12.64640 16 ft 8 kts 248°
2026-05-04 19:29 55.62289 12.64573 16 ft 0 kts 247°
2026-05-04 19:29 55.62289 12.64572 16 ft 0 kts 247°
2026-05-04 19:30 55.62283 12.64548 18 ft 5 kts 246°
2026-05-04 19:30 55.62261 12.64460 15 ft 11 kts 245°
2026-05-04 19:30 55.62201 12.64347 14 ft 14 kts 204°
2026-05-04 19:30 55.62117 12.64277 16 ft 13 kts 205°
2026-05-04 19:31 55.62036 12.64209 16 ft 13 kts 205°
2026-05-04 19:31 55.61956 12.64143 17 ft 12 kts 205°
2026-05-04 19:31 55.61877 12.64078 16 ft 12 kts 202°
2026-05-04 19:31 55.61796 12.64074 16 ft 12 kts 175°
2026-05-04 19:32 55.61760 12.64079 17 ft 3 kts 176°
2026-05-04 19:32 55.61748 12.64080 19 ft 0 kts 176°
2026-05-04 19:36 55.61733 12.64082 18 ft 4 kts 176°
2026-05-04 19:37 55.61691 12.64088 20 ft 6 kts 176°
2026-05-04 19:37 55.61646 12.64090 20 ft 6 kts 187°
2026-05-04 19:37 55.61609 12.64051 22 ft 7 kts 221°
2026-05-04 19:37 55.61559 12.63973 19 ft 22 kts 221°
2026-05-04 19:38 55.61247 12.63488 19 ft 95 kts 221°
2026-05-04 19:38 55.60594 12.62473 23 ft 154 kts 221°
2026-05-04 19:38 55.59728 12.61216 608 ft 159 kts 222°
2026-05-04 19:38 55.58901 12.59976 1483 ft 156 kts 224°
2026-05-04 19:39 55.58012 12.58632 1881 ft 183 kts 224°
2026-05-04 19:39 55.57006 12.57108 2376 ft 196 kts 224°
2026-05-04 19:39 55.55902 12.55547 2870 ft 208 kts 218°
2026-05-04 19:39 55.54663 12.54017 3146 ft 232 kts 217°
2026-05-04 19:40 55.53232 12.52265 3270 ft 260 kts 217°
2026-05-04 19:40 55.51751 12.50461 4170 ft 258 kts 217°
2026-05-04 19:40 55.50281 12.48661 5039 ft 257 kts 217°
2026-05-04 19:40 55.48809 12.46857 5835 ft 258 kts 218°
2026-05-04 19:41 55.47331 12.45048 6630 ft 260 kts 218°
2026-05-04 19:41 55.45852 12.43239 7389 ft 263 kts 218°
2026-05-04 19:41 55.44342 12.41393 8175 ft 266 kts 218°
2026-05-04 19:41 55.42815 12.39529 8984 ft 269 kts 218°
2026-05-04 19:42 55.41268 12.37642 9810 ft 272 kts 218°
2026-05-04 19:42 55.39691 12.35720 10393 ft 284 kts 218°
2026-05-04 19:42 55.37997 12.33650 10578 ft 309 kts 218°
2026-05-04 19:42 55.36163 12.31413 10798 ft 331 kts 218°
2026-05-04 19:43 55.34240 12.29081 11363 ft 339 kts 218°
2026-05-04 19:43 55.32291 12.26725 12144 ft 341 kts 218°
2026-05-04 19:43 55.30329 12.24356 12978 ft 343 kts 218°
2026-05-04 19:43 55.28357 12.21974 13808 ft 346 kts 218°
2026-05-04 19:44 55.26356 12.19557 14461 ft 352 kts 218°
2026-05-04 19:44 55.24329 12.17109 15175 ft 356 kts 218°
2026-05-04 19:44 55.22280 12.14641 15929 ft 359 kts 218°
2026-05-04 19:44 55.20910 12.12993 16392 ft 362 kts 218°
2026-05-04 19:45 55.18837 12.10449 17093 ft 366 kts 219°
2026-05-04 19:45 55.16771 12.07814 17773 ft 369 kts 219°
2026-05-04 19:45 55.14691 12.05130 18443 ft 373 kts 219°
2026-05-04 19:45 55.12590 12.02418 19060 ft 377 kts 219°
2026-05-04 19:46 55.10472 11.99694 19700 ft 379 kts 219°
2026-05-04 19:46 55.08335 11.96955 20323 ft 382 kts 219°
2026-05-04 19:46 55.06180 11.94203 20925 ft 385 kts 219°
2026-05-04 19:46 55.04005 11.91431 21520 ft 388 kts 219°
2026-05-04 19:47 55.01840 11.88678 22083 ft 391 kts 219°
2026-05-04 19:47 54.99628 11.85870 22656 ft 395 kts 219°
2026-05-04 19:47 54.97398 11.83043 23210 ft 398 kts 219°
2026-05-04 19:47 54.95151 11.80199 23708 ft 401 kts 219°
2026-05-04 19:48 54.92906 11.77365 24430 ft 394 kts 220°
2026-05-04 19:48 54.90695 11.74577 25046 ft 393 kts 220°
2026-05-04 19:48 54.88475 11.71775 25449 ft 396 kts 220°
2026-05-04 19:48 54.86232 11.68947 25856 ft 399 kts 220°
2026-05-04 19:49 54.83981 11.66116 26328 ft 400 kts 220°
2026-05-04 19:49 54.81724 11.63284 26826 ft 400 kts 220°
2026-05-04 19:49 54.79462 11.60455 27288 ft 401 kts 220°
2026-05-04 19:49 54.77190 11.57624 27714 ft 402 kts 221°
2026-05-04 19:50 54.74909 11.54787 28123 ft 404 kts 221°
2026-05-04 19:50 54.72622 11.51946 28525 ft 405 kts 221°
2026-05-04 19:50 54.70325 11.49096 28850 ft 407 kts 220°
2026-05-04 19:50 54.68040 11.46263 29163 ft 410 kts 220°
2026-05-04 19:51 54.65716 11.43386 29525 ft 412 kts 220°
2026-05-04 19:51 54.63388 11.40510 29979 ft 411 kts 220°
2026-05-04 19:51 54.61073 11.37653 30455 ft 408 kts 220°
2026-05-04 19:51 54.58767 11.34809 30812 ft 408 kts 220°
2026-05-04 19:52 54.56454 11.31962 31103 ft 409 kts 220°
2026-05-04 19:52 54.54140 11.29120 31412 ft 410 kts 220°
2026-05-04 19:52 54.51809 11.26270 31734 ft 411 kts 220°
2026-05-04 19:52 54.49473 11.23418 31992 ft 413 kts 220°
2026-05-04 19:53 54.47111 11.20536 31942 ft 418 kts 219°
2026-05-04 19:53 54.42353 11.14744 32073 ft 420 kts 219°
2026-05-04 19:53 54.39976 11.11857 32433 ft 419 kts 219°
2026-05-04 19:54 54.37596 11.08971 32868 ft 416 kts 219°
2026-05-04 19:54 54.35235 11.06109 33275 ft 415 kts 220°
2026-05-04 19:54 54.32906 11.03290 33627 ft 415 kts 219°
2026-05-04 19:54 54.30537 11.00443 33917 ft 416 kts 218°
2026-05-04 19:55 54.28080 10.97792 34161 ft 419 kts 216°
2026-05-04 19:55 54.25573 10.95237 34429 ft 419 kts 215°
2026-05-04 19:55 54.23053 10.92717 34646 ft 420 kts 215°
2026-05-04 19:55 54.20519 10.90195 34862 ft 422 kts 214°
2026-05-04 19:56 54.17989 10.87672 35110 ft 422 kts 214°
2026-05-04 19:56 54.15457 10.85139 35376 ft 422 kts 214°
2026-05-04 19:56 54.12923 10.82597 35612 ft 423 kts 214°
2026-05-04 19:56 54.10385 10.80047 35837 ft 424 kts 214°
2026-05-04 19:57 54.07848 10.77497 36082 ft 424 kts 214°
2026-05-04 19:57 54.05300 10.74939 36323 ft 424 kts 214°
2026-05-04 19:57 54.02753 10.72384 36528 ft 425 kts 214°
2026-05-04 19:57 54.00232 10.69858 36742 ft 426 kts 214°
2026-05-04 19:58 53.97649 10.67275 36975 ft 426 kts 214°
2026-05-04 19:58 53.95117 10.64746 37199 ft 426 kts 213°
2026-05-04 19:58 53.92559 10.62194 37424 ft 427 kts 213°
2026-05-04 19:58 53.89994 10.59640 37642 ft 427 kts 213°
2026-05-04 19:59 53.87426 10.57087 37872 ft 427 kts 213°
2026-05-04 19:59 53.82268 10.51968 37968 ft 431 kts 213°
2026-05-04 20:00 53.77100 10.46856 37955 ft 428 kts 213°
2026-05-04 20:00 53.71972 10.41798 37959 ft 426 kts 213°
2026-05-04 20:01 53.66862 10.36771 37972 ft 424 kts 213°
2026-05-04 20:01 53.61767 10.31773 37976 ft 424 kts 213°
2026-05-04 20:02 53.56690 10.26806 37982 ft 424 kts 213°
2026-05-04 20:02 53.51584 10.21825 37982 ft 424 kts 213°
2026-05-04 20:03 53.46475 10.16855 37983 ft 424 kts 212°
2026-05-04 20:03 53.41359 10.11893 37969 ft 425 kts 212°
2026-05-04 20:04 53.36242 10.06943 37975 ft 425 kts 212°
2026-05-04 20:04 53.31117 10.01999 37960 ft 425 kts 212°
2026-05-04 20:05 53.25987 9.97065 37962 ft 425 kts 212°
2026-05-04 20:05 53.20872 9.92159 37969 ft 424 kts 212°
2026-05-04 20:06 53.15756 9.87266 37968 ft 423 kts 212°
2026-05-04 20:06 53.10657 9.82402 37973 ft 422 kts 212°
2026-05-04 20:07 53.05561 9.77539 37971 ft 422 kts 212°
2026-05-04 20:07 53.00472 9.72698 37963 ft 421 kts 212°
2026-05-04 20:08 52.95413 9.67915 37971 ft 420 kts 212°
2026-05-04 20:08 52.90330 9.63122 37963 ft 420 kts 212°
2026-05-04 20:09 52.85251 9.58345 37945 ft 420 kts 212°
2026-05-04 20:09 52.80180 9.53588 37967 ft 419 kts 212°
2026-05-04 20:10 52.75105 9.48839 37968 ft 419 kts 212°
2026-05-04 20:10 52.70022 9.44098 37968 ft 420 kts 212°
2026-05-04 20:11 52.64905 9.39333 37598 ft 426 kts 212°
2026-05-04 20:11 52.62338 9.36926 37341 ft 423 kts 214°
2026-05-04 20:11 52.59876 9.34321 37061 ft 417 kts 216°
2026-05-04 20:11 52.57477 9.31667 36790 ft 414 kts 216°
2026-05-04 20:12 52.55130 9.29041 36545 ft 413 kts 217°
2026-05-04 20:12 52.52729 9.26356 36283 ft 412 kts 217°
2026-05-04 20:12 52.50396 9.23760 36038 ft 410 kts 216°
2026-05-04 20:12 52.48025 9.21139 35783 ft 409 kts 216°
2026-05-04 20:13 52.45666 9.18541 35527 ft 408 kts 216°
2026-05-04 20:13 52.43307 9.15954 35281 ft 407 kts 216°
2026-05-04 20:13 52.40954 9.13379 35015 ft 405 kts 216°
2026-05-04 20:13 52.38608 9.10817 34782 ft 404 kts 216°
2026-05-04 20:14 52.36276 9.08273 34541 ft 403 kts 216°
2026-05-04 20:14 52.33943 9.05732 34198 ft 401 kts 217°
2026-05-04 20:14 52.31615 9.03199 33486 ft 401 kts 217°
2026-05-04 20:14 52.29294 9.00676 32798 ft 399 kts 217°
2026-05-04 20:15 52.26996 8.98183 32324 ft 394 kts 217°
2026-05-04 20:15 52.24729 8.95726 31817 ft 390 kts 217°
2026-05-04 20:15 52.22512 8.93327 31334 ft 386 kts 217°
2026-05-04 20:15 52.20282 8.90916 30854 ft 383 kts 217°
2026-05-04 20:16 52.18074 8.88529 30379 ft 380 kts 217°
2026-05-04 20:16 52.15877 8.86157 29904 ft 377 kts 216°
2026-05-04 20:16 52.13695 8.83805 29368 ft 375 kts 216°
2026-05-04 20:16 52.11530 8.81476 28888 ft 372 kts 216°
2026-05-04 20:17 52.09379 8.79165 28398 ft 368 kts 216°
2026-05-04 20:17 52.07253 8.76882 27923 ft 364 kts 216°
2026-05-04 20:17 52.05149 8.74624 27443 ft 361 kts 216°
2026-05-04 20:17 52.03065 8.72390 26980 ft 358 kts 215°
2026-05-04 20:18 52.01001 8.70149 26508 ft 355 kts 218°
2026-05-04 20:18 51.99207 8.67421 26043 ft 351 kts 230°
2026-05-04 20:18 51.97741 8.64262 25769 ft 354 kts 237°
2026-05-04 20:18 51.96579 8.60633 25473 ft 371 kts 246°
2026-05-04 20:19 51.95593 8.56710 25157 ft 380 kts 247°
2026-05-04 20:19 51.94643 8.52776 24859 ft 378 kts 247°
2026-05-04 20:19 51.93695 8.48822 24557 ft 376 kts 247°
2026-05-04 20:19 51.92744 8.44885 24265 ft 374 kts 247°
2026-05-04 20:20 51.91790 8.40973 23964 ft 373 kts 247°
2026-05-04 20:20 51.90830 8.37072 23670 ft 372 kts 247°
2026-05-04 20:20 51.89865 8.33176 23344 ft 372 kts 247°
2026-05-04 20:20 51.88898 8.29289 23024 ft 372 kts 246°
2026-05-04 20:21 51.87927 8.25397 22718 ft 372 kts 246°
2026-05-04 20:21 51.86952 8.21499 22418 ft 374 kts 246°
2026-05-04 20:21 51.84997 8.13706 21807 ft 372 kts 246°
2026-05-04 20:22 51.84031 8.09860 21504 ft 367 kts 246°
2026-05-04 20:22 51.83072 8.06055 21192 ft 363 kts 246°
2026-05-04 20:22 51.82130 8.02323 20915 ft 362 kts 246°
2026-05-04 20:22 51.81179 7.98560 20630 ft 360 kts 246°
2026-05-04 20:23 51.80232 7.94820 20351 ft 358 kts 246°
2026-05-04 20:23 51.79289 7.91102 20071 ft 357 kts 246°
2026-05-04 20:23 51.78343 7.87382 19806 ft 357 kts 246°
2026-05-04 20:23 51.77399 7.83674 19521 ft 357 kts 246°
2026-05-04 20:24 51.76451 7.79956 19232 ft 358 kts 246°
2026-05-04 20:24 51.75504 7.76249 18942 ft 357 kts 246°
2026-05-04 20:24 51.74555 7.72539 18665 ft 356 kts 246°
2026-05-04 20:24 51.73610 7.68845 18375 ft 355 kts 246°
2026-05-04 20:25 51.72681 7.65224 18084 ft 354 kts 246°
2026-05-04 20:25 51.71742 7.61563 17765 ft 353 kts 246°
2026-05-04 20:25 51.71013 7.57788 17467 ft 353 kts 256°
2026-05-04 20:25 51.70701 7.53847 17184 ft 353 kts 263°
2026-05-04 20:26 51.70521 7.49901 16902 ft 352 kts 264°
2026-05-04 20:26 51.70352 7.45969 16608 ft 351 kts 264°
2026-05-04 20:26 51.70181 7.42053 16333 ft 349 kts 264°
2026-05-04 20:26 51.70005 7.38151 16057 ft 348 kts 263°
2026-05-04 20:27 51.69824 7.34260 15791 ft 347 kts 263°
2026-05-04 20:27 51.69677 7.31173 15567 ft 347 kts 263°